03-04-2022, 00:00:03,     63,    0.0,   -0.7,   0.00,   0.00, 1021.8,   84.7, -999.0
03-04-2022, 00:00:12,     63,    0.0,   -0.8,   0.00,   0.00, 1021.8,   84.6, -999.0
03-04-2022, 00:00:22,     63,    0.0,   -0.7,   0.00,   0.00, 1021.9,   84.6, -999.0
03-04-2022, 00:00:33,     63,    0.0,   -0.7,   0.00,   0.00, 1021.9,   84.7, -999.0
03-04-2022, 00:00:42,     63,    0.0,   -0.9,   0.00,   0.00, 1021.8,   84.6, -999.0
03-04-2022, 00:00:52,     63,    0.0,   -0.8,   0.00,   0.00, 1021.8,   84.5, -999.0
03-04-2022, 00:01:02,     63,    0.0,   -0.8,   0.00,   0.00, 1021.8,   84.5, -999.0
03-04-2022, 00:01:12,     63,    0.0,   -0.8,   0.00,   0.00, 1021.9,   84.4, -999.0
03-04-2022, 00:01:22,     63,    0.0,   -0.8,   0.00,   0.00, 1021.8,   84.4, -999.0
03-04-2022, 00:01:32,     63,    0.0,   -0.8,   0.00,   0.00, 1021.9,   84.6, -999.0
03-04-2022, 00:01:42,     63,    0.0,   -0.8,   0.00,   0.00, 1021.8,   84.7, -999.0
03-04-2022, 00:01:52,     63,    0.0,   -0.8,   0.00,   0.00, 1021.8,   84.7, -999.0
03-04-2022, 00:02:02,     63,    0.0,   -0.7,   0.00,   0.00, 1021.8,   84.8, -999.0
03-04-2022, 00:02:12,     63,    0.0,   -0.7,   0.00,   0.00, 1021.9,   84.8, -999.0
03-04-2022, 00:02:22,     63,    0.0,   -0.7,   0.00,   0.00, 1021.8,   84.6, -999.0
03-04-2022, 00:02:32,     63,    0.0,   -0.8,   0.00,   0.00, 1021.8,   84.7, -999.0
03-04-2022, 00:02:42,     63,    0.0,   -0.8,   0.00,   0.00, 1021.8,   84.8, -999.0
03-04-2022, 00:02:52,     63,    0.0,   -0.7,   0.00,   0.00, 1021.8,   84.7, -999.0
03-04-2022, 00:03:02,     64,    0.0,   -0.8,   0.00,   0.00, 1021.8,   84.8, -999.0
03-04-2022, 00:03:12,     63,    0.0,   -0.7,   0.00,   0.00, 1021.9,   84.7, -999.0
03-04-2022, 00:03:21,     64,    0.0,   -0.8,   0.00,   0.00, 1021.9,   84.6, -999.0
03-04-2022, 00:03:32,     63,    0.0,   -0.8,   0.00,   0.00, 1021.9,   84.6, -999.0
03-04-2022, 00:03:42,     63,    0.0,   -0.8,   0.00,   0.00, 1021.8,   84.4, -999.0
03-04-2022, 00:03:51,     63,    0.0,   -0.9,   0.00,   0.00, 1021.8,   84.4, -999.0
03-04-2022, 00:04:01,     63,    0.0,   -0.8,   0.00,   0.00, 1021.9,   84.5, -999.0
03-04-2022, 00:04:12,     64,    0.0,   -0.8,   0.00,   0.00, 1021.9,   84.5, -999.0
03-04-2022, 00:04:21,     63,    0.0,   -0.9,   0.00,   0.00, 1021.8,   84.5, -999.0
03-04-2022, 00:04:31,     63,    0.0,   -0.9,   0.00,   0.00, 1021.9,   84.5, -999.0
03-04-2022, 00:04:41,     63,    0.0,   -0.8,   0.00,   0.00, 1021.9,   84.5, -999.0
03-04-2022, 00:04:51,     63,    0.0,   -0.8,   0.00,   0.00, 1021.9,   84.7, -999.0
03-04-2022, 00:05:01,     63,    0.0,   -0.8,   0.00,   0.00, 1021.9,   84.8, -999.0
03-04-2022, 00:05:11,     63,    0.0,   -0.8,   0.00,   0.00, 1021.9,   84.8, -999.0
03-04-2022, 00:05:21,     63,    0.0,   -0.9,   0.00,   0.00, 1021.9,   84.7, -999.0
03-04-2022, 00:05:31,     63,    0.0,   -0.8,   0.00,   0.00, 1021.9,   84.8, -999.0
03-04-2022, 00:05:41,     63,    0.0,   -0.9,   0.00,   0.00, 1021.9,   84.8, -999.0
03-04-2022, 00:05:51,     63,    0.0,   -0.8,   0.00,   0.00, 1021.9,   84.9, -999.0
03-04-2022, 00:06:01,     63,    0.0,   -0.9,   0.00,   0.00, 1021.9,   84.8, -999.0
03-04-2022, 00:06:11,     63,    0.0,   -0.8,   0.00,   0.00, 1021.9,   84.8, -999.0
03-04-2022, 00:06:21,     63,    0.0,   -0.7,   0.00,   0.00, 1021.9,   84.9, -999.0
03-04-2022, 00:06:31,     63,    0.0,   -0.8,   0.00,   0.00, 1021.9,   84.8, -999.0
03-04-2022, 00:06:41,     63,    0.0,   -0.8,   0.00,   0.00, 1021.9,   84.9, -999.0
03-04-2022, 00:06:51,     63,    0.0,   -0.7,   0.00,   0.00, 1021.9,   84.9, -999.0
03-04-2022, 00:07:00,     63,    0.0,   -0.7,   0.00,   0.00, 1021.9,   84.8, -999.0
03-04-2022, 00:07:10,     63,    0.0,   -0.8,   0.00,   0.00, 1021.9,   84.7, -999.0
03-04-2022, 00:07:21,     62,    0.0,   -0.8,   0.00,   0.00, 1021.8,   84.8, -999.0
03-04-2022, 00:07:30,     63,    0.0,   -0.8,   0.00,   0.00, 1021.9,   84.7, -999.0
03-04-2022, 00:07:40,     63,    0.0,   -0.8,   0.00,   0.00, 1021.9,   84.7, -999.0
03-04-2022, 00:07:51,     63,    0.0,   -0.8,   0.00,   0.00, 1021.9,   84.8, -999.0
03-04-2022, 00:08:00,     63,    0.0,   -0.9,   0.00,   0.00, 1021.9,   84.9, -999.0
03-04-2022, 00:08:10,     63,    0.0,   -0.8,   0.00,   0.00, 1021.9,   85.0, -999.0
03-04-2022, 00:08:20,     63,    0.0,   -0.8,   0.00,   0.00, 1021.9,   85.0, -999.0
03-04-2022, 00:08:30,     63,    0.0,   -0.8,   0.00,   0.00, 1021.9,   85.1, -999.0
03-04-2022, 00:08:40,     63,    0.0,   -0.8,   0.00,   0.00, 1021.9,   85.0, -999.0
03-04-2022, 00:08:50,     63,    0.0,   -0.7,   0.00,   0.00, 1021.9,   85.0, -999.0
03-04-2022, 00:09:00,     63,    0.0,   -0.7,   0.00,   0.00, 1021.9,   84.9, -999.0
03-04-2022, 00:09:10,     63,    0.0,   -0.7,   0.00,   0.00, 1021.9,   84.8, -999.0
03-04-2022, 00:09:20,     63,    0.0,   -0.7,   0.00,   0.00, 1021.8,   84.9, -999.0
03-04-2022, 00:09:30,     63,    0.0,   -0.8,   0.00,   0.00, 1021.9,   84.9, -999.0
03-04-2022, 00:09:40,     63,    0.0,   -0.7,   0.00,   0.00, 1021.8,   84.8, -999.0
03-04-2022, 00:09:50,     63,    0.0,   -0.8,   0.00,   0.00, 1021.9,   84.9, -999.0
03-04-2022, 00:10:00,     63,    0.0,   -0.8,   0.00,   0.00, 1021.9,   84.8, -999.0
03-04-2022, 00:10:10,     63,    0.0,   -0.8,   0.00,   0.00, 1021.9,   84.8, -999.0
03-04-2022, 00:10:20,     63,    0.0,   -0.7,   0.00,   0.00, 1021.9,   84.8, -999.0
03-04-2022, 00:10:30,     63,    0.0,   -0.7,   0.00,   0.00, 1021.9,   84.8, -999.0
03-04-2022, 00:10:40,     63,    0.0,   -0.8,   0.00,   0.00, 1021.8,   84.7, -999.0
03-04-2022, 00:10:49,     63,    0.0,   -0.7,   0.00,   0.00, 1021.9,   84.7, -999.0
03-04-2022, 00:11:00,     63,    0.0,   -0.7,   0.00,   0.00, 1021.8,   84.7, -999.0
03-04-2022, 00:11:09,     63,    0.0,   -0.7,   0.00,   0.00, 1021.9,   84.7, -999.0
03-04-2022, 00:11:19,     63,    0.0,   -0.7,   0.00,   0.00, 1021.8,   84.8, -999.0
03-04-2022, 00:11:29,     63,    0.0,   -0.7,   0.00,   0.00, 1021.8,   84.7, -999.0
03-04-2022, 00:11:39,     63,    0.0,   -0.7,   0.00,   0.00, 1021.8,   84.8, -999.0
03-04-2022, 00:11:49,     63,    0.0,   -0.7,   0.00,   0.00, 1021.9,   84.7, -999.0
03-04-2022, 00:11:59,     64,    0.0,   -0.7,   0.00,   0.00, 1021.8,   84.7, -999.0
03-04-2022, 00:12:09,     63,    0.0,   -0.7,   0.00,   0.00, 1021.8,   84.8, -999.0
03-04-2022, 00:12:19,     63,    0.0,   -0.7,   0.00,   0.00, 1021.8,   84.6, -999.0
03-04-2022, 00:12:29,     63,    0.0,   -0.7,   0.00,   0.00, 1021.8,   84.6, -999.0
03-04-2022, 00:12:39,     63,    0.0,   -0.7,   0.00,   0.00, 1021.8,   84.6, -999.0
03-04-2022, 00:12:49,     63,    0.0,   -0.7,   0.00,   0.00, 1021.9,   84.7, -999.0
03-04-2022, 00:12:59,     63,    0.0,   -0.7,   0.00,   0.00, 1021.8,   84.6, -999.0
03-04-2022, 00:13:09,     63,    0.0,   -0.7,   0.00,   0.00, 1021.8,   84.6, -999.0
03-04-2022, 00:13:19,     63,    0.0,   -0.7,   0.00,   0.00, 1021.8,   84.7, -999.0
03-04-2022, 00:13:29,     63,    0.0,   -0.7,   0.00,   0.00, 1021.9,   84.6, -999.0
03-04-2022, 00:13:39,     63,    0.0,   -0.7,   0.00,   0.00, 1021.8,   84.6, -999.0
03-04-2022, 00:13:49,     63,    0.0,   -0.7,   0.00,   0.00, 1021.9,   84.6, -999.0
03-04-2022, 00:13:58,     63,    0.0,   -0.6,   0.00,   0.00, 1021.9,   84.5, -999.0
03-04-2022, 00:14:09,     63,    0.0,   -0.7,   0.00,   0.00, 1021.9,   84.5, -999.0
03-04-2022, 00:14:19,     63,    0.0,   -0.7,   0.00,   0.00, 1021.9,   84.5, -999.0
03-04-2022, 00:14:28,     63,    0.0,   -0.7,   0.00,   0.00, 1021.9,   84.5, -999.0
03-04-2022, 00:14:38,     63,    0.0,   -0.7,   0.00,   0.00, 1021.8,   84.4, -999.0
03-04-2022, 00:14:49,     63,    0.0,   -0.7,   0.00,   0.00, 1021.8,   84.4, -999.0
03-04-2022, 00:14:58,     63,    0.0,   -0.7,   0.00,   0.00, 1021.9,   84.4, -999.0
03-04-2022, 00:15:08,     64,    0.0,   -0.7,   0.00,   0.00, 1021.9,   84.3, -999.0
03-04-2022, 00:15:18,     63,    0.0,   -0.7,   0.00,   0.00, 1021.9,   84.3, -999.0
03-04-2022, 00:15:28,     63,    0.0,   -0.7,   0.00,   0.00, 1021.8,   84.3, -999.0
03-04-2022, 00:15:38,     63,    0.0,   -0.8,   0.00,   0.00, 1021.8,   84.4, -999.0
03-04-2022, 00:15:48,     63,    0.0,   -0.7,   0.00,   0.00, 1021.9,   84.3, -999.0
03-04-2022, 00:15:58,     63,    0.0,   -0.7,   0.00,   0.00, 1021.9,   84.3, -999.0
03-04-2022, 00:16:08,     63,    0.0,   -0.8,   0.00,   0.00, 1021.9,   84.3, -999.0
03-04-2022, 00:16:18,     63,    0.0,   -0.7,   0.00,   0.00, 1021.8,   84.3, -999.0
03-04-2022, 00:16:28,     63,    0.0,   -0.8,   0.00,   0.00, 1021.9,   84.3, -999.0
03-04-2022, 00:16:38,     63,    0.0,   -0.7,   0.00,   0.00, 1021.8,   84.1, -999.0
03-04-2022, 00:16:48,     63,    0.0,   -0.8,   0.00,   0.00, 1021.8,   84.2, -999.0
03-04-2022, 00:16:58,     63,    0.0,   -0.7,   0.00,   0.00, 1021.9,   84.3, -999.0
03-04-2022, 00:17:07,     63,    0.0,   -0.8,   0.00,   0.00, 1021.9,   84.3, -999.0
03-04-2022, 00:17:18,     63,    0.0,   -0.7,   0.00,   0.00, 1021.8,   84.4, -999.0
03-04-2022, 00:17:28,     63,    0.0,   -0.7,   0.00,   0.00, 1021.8,   84.3, -999.0
03-04-2022, 00:17:37,     63,    0.0,   -0.7,   0.00,   0.00, 1021.8,   84.3, -999.0
03-04-2022, 00:17:48,     63,    0.0,   -0.6,   0.00,   0.00, 1021.8,   84.3, -999.0
03-04-2022, 00:17:58,     63,    0.0,   -0.7,   0.00,   0.00, 1021.8,   84.2, -999.0
03-04-2022, 00:18:07,     63,    0.0,   -0.7,   0.00,   0.00, 1021.8,   84.2, -999.0
03-04-2022, 00:18:17,     63,    0.0,   -0.8,   0.00,   0.00, 1021.8,   84.2, -999.0
03-04-2022, 00:18:28,     63,    0.0,   -0.7,   0.00,   0.00, 1021.8,   84.2, -999.0
03-04-2022, 00:18:37,     63,    0.0,   -0.7,   0.00,   0.00, 1021.8,   84.2, -999.0
03-04-2022, 00:18:47,     63,    0.0,   -0.7,   0.00,   0.00, 1021.8,   84.2, -999.0
03-04-2022, 00:18:57,     63,    0.0,   -0.7,   0.00,   0.00, 1021.8,   84.2, -999.0
03-04-2022, 00:19:07,     63,    0.0,   -0.7,   0.00,   0.00, 1021.8,   84.3, -999.0
03-04-2022, 00:19:17,     63,    0.0,   -0.8,   0.00,   0.00, 1021.8,   84.1, -999.0
03-04-2022, 00:19:27,     63,    0.0,   -0.7,   0.00,   0.00, 1021.9,   84.0, -999.0
03-04-2022, 00:19:37,     63,    0.0,   -0.8,   0.00,   0.00, 1021.9,   84.0, -999.0
03-04-2022, 00:19:47,     63,    0.0,   -0.8,   0.00,   0.00, 1021.9,   84.1, -999.0
03-04-2022, 00:19:57,     63,    0.0,   -0.7,   0.00,   0.00, 1021.9,   84.0, -999.0
03-04-2022, 00:20:07,     63,    0.0,   -0.8,   0.00,   0.00, 1021.8,   84.1, -999.0
03-04-2022, 00:20:17,     63,    0.0,   -0.8,   0.00,   0.00, 1021.8,   84.1, -999.0
03-04-2022, 00:20:27,     63,    0.0,   -0.8,   0.00,   0.00, 1021.8,   84.0, -999.0
03-04-2022, 00:20:37,     63,    0.0,   -0.8,   0.00,   0.00, 1021.8,   84.0, -999.0
03-04-2022, 00:20:47,     63,    0.0,   -0.8,   0.00,   0.00, 1021.8,   84.1, -999.0
03-04-2022, 00:20:57,     63,    0.0,   -0.7,   0.00,   0.00, 1021.8,   84.1, -999.0
03-04-2022, 00:21:07,     62,    0.0,   -0.8,   0.00,   0.00, 1021.8,   84.0, -999.0
03-04-2022, 00:21:16,     63,    0.0,   -0.8,   0.00,   0.00, 1021.8,   84.0, -999.0
03-04-2022, 00:21:26,     66,    0.0,   -0.8,   0.00,   0.00, 1021.8,   83.9, -999.0
03-04-2022, 00:21:37,     63,    0.0,   -0.8,   0.00,   0.00, 1021.8,   83.9, -999.0
03-04-2022, 00:21:46,     63,    0.0,   -0.8,   0.00,   0.00, 1021.9,   83.8, -999.0
03-04-2022, 00:21:56,     64,    0.0,   -0.8,   0.00,   0.00, 1021.8,   83.8, -999.0
03-04-2022, 00:22:07,     63,    0.0,   -0.8,   0.00,   0.00, 1021.9,   83.9, -999.0
03-04-2022, 00:22:16,     63,    0.0,   -0.8,   0.00,   0.00, 1021.9,   84.0, -999.0
03-04-2022, 00:22:26,     63,    0.0,   -0.8,   0.00,   0.00, 1021.8,   84.0, -999.0
03-04-2022, 00:22:36,     63,    0.0,   -0.9,   0.00,   0.00, 1021.8,   83.9, -999.0
03-04-2022, 00:22:46,     64,    0.0,   -0.8,   0.00,   0.00, 1021.8,   83.8, -999.0
03-04-2022, 00:22:56,     63,    0.0,   -0.8,   0.00,   0.00, 1021.8,   83.8, -999.0
03-04-2022, 00:23:06,     63,    0.0,   -0.8,   0.00,   0.00, 1021.9,   83.9, -999.0
03-04-2022, 00:23:16,     64,    0.0,   -0.8,   0.00,   0.00, 1021.9,   84.0, -999.0
03-04-2022, 00:23:26,     63,    0.0,   -0.9,   0.00,   0.00, 1021.9,   84.0, -999.0
03-04-2022, 00:23:36,     63,    0.0,   -0.9,   0.00,   0.00, 1021.9,   83.9, -999.0
03-04-2022, 00:23:46,     63,    0.0,   -0.9,   0.00,   0.00, 1021.9,   83.9, -999.0
03-04-2022, 00:23:56,     63,    0.0,   -0.9,   0.00,   0.00, 1021.9,   84.0, -999.0
03-04-2022, 00:24:06,     63,    0.0,   -0.8,   0.00,   0.00, 1021.8,   84.0, -999.0
03-04-2022, 00:24:16,     63,    0.0,   -0.9,   0.00,   0.00, 1021.9,   84.0, -999.0
03-04-2022, 00:24:26,     63,    0.0,   -0.9,   0.00,   0.00, 1021.9,   83.9, -999.0
03-04-2022, 00:24:35,     63,    0.0,   -0.9,   0.00,   0.00, 1021.9,   83.8, -999.0
03-04-2022, 00:24:46,     63,    0.0,   -1.0,   0.00,   0.00, 1021.9,   83.8, -999.0
03-04-2022, 00:24:56,     63,    0.0,   -1.0,   0.00,   0.00, 1021.9,   83.8, -999.0
03-04-2022, 00:25:05,     63,    0.0,   -1.0,   0.00,   0.00, 1021.9,   83.8, -999.0
03-04-2022, 00:25:16,     63,    0.0,   -1.0,   0.00,   0.00, 1021.9,   83.7, -999.0
03-04-2022, 00:25:26,     63,    0.0,   -1.1,   0.00,   0.00, 1021.9,   83.8, -999.0
03-04-2022, 00:25:35,     63,    0.0,   -1.1,   0.00,   0.00, 1021.9,   83.8, -999.0
03-04-2022, 00:25:45,     63,    0.0,   -1.0,   0.00,   0.00, 1021.9,   83.7, -999.0
03-04-2022, 00:25:55,     62,    0.0,   -1.0,   0.00,   0.00, 1021.9,   83.9, -999.0
03-04-2022, 00:26:05,     63,    0.0,   -1.0,   0.00,   0.00, 1021.9,   83.9, -999.0
03-04-2022, 00:26:15,     63,    0.0,   -1.2,   0.00,   0.00, 1021.9,   83.8, -999.0
03-04-2022, 00:26:25,     63,    0.0,   -1.2,   0.00,   0.00, 1021.9,   83.9, -999.0
03-04-2022, 00:26:35,     63,    0.0,   -1.1,   0.00,   0.00, 1021.9,   84.0, -999.0
03-04-2022, 00:26:46,     63,    0.0,   -1.1,   0.00,   0.00, 1021.9,   83.9, -999.0
03-04-2022, 00:26:55,     63,    0.0,   -1.3,   0.00,   0.00, 1021.9,   83.8, -999.0
03-04-2022, 00:27:05,     63,    0.0,   -1.0,   0.00,   0.00, 1021.9,   84.0, -999.0
03-04-2022, 00:27:15,     63,    0.0,   -1.1,   0.00,   0.00, 1021.9,   84.0, -999.0
03-04-2022, 00:27:25,     63,    0.0,   -1.2,   0.00,   0.00, 1021.9,   84.0, -999.0
03-04-2022, 00:27:35,     63,    0.0,   -1.2,   0.00,   0.00, 1021.9,   84.0, -999.0
03-04-2022, 00:27:45,     63,    0.0,   -1.2,   0.00,   0.00, 1021.9,   84.0, -999.0
03-04-2022, 00:27:55,     63,    0.0,   -1.2,   0.00,   0.00, 1021.9,   84.0, -999.0
03-04-2022, 00:28:05,     64,    0.0,   -1.3,   0.00,   0.00, 1021.9,   84.1, -999.0
03-04-2022, 00:28:14,     63,    0.0,   -1.2,   0.00,   0.00, 1021.9,   84.2, -999.0
03-04-2022, 00:28:25,     63,    0.0,   -1.2,   0.00,   0.00, 1021.9,   84.3, -999.0
03-04-2022, 00:28:35,     63,    0.0,   -1.1,   0.00,   0.00, 1021.9,   84.3, -999.0
03-04-2022, 00:28:46,     63,    0.0,   -1.1,   0.00,   0.00, 1021.9,   84.4, -999.0
03-04-2022, 00:28:54,     63,    0.0,   -1.1,   0.00,   0.00, 1021.9,   84.3, -999.0
03-04-2022, 00:29:04,     63,    0.0,   -1.1,   0.00,   0.00, 1021.9,   84.4, -999.0
03-04-2022, 00:29:14,     63,    0.0,   -1.2,   0.00,   0.00, 1021.9,   84.5, -999.0
03-04-2022, 00:29:24,     63,    0.0,   -1.2,   0.00,   0.00, 1021.9,   84.5, -999.0
03-04-2022, 00:29:34,     63,    0.0,   -1.2,   0.00,   0.00, 1021.9,   84.5, -999.0
03-04-2022, 00:29:44,     64,    0.0,   -1.1,   0.00,   0.00, 1021.9,   84.5, -999.0
03-04-2022, 00:29:54,     63,    0.0,   -1.1,   0.00,   0.00, 1021.9,   84.4, -999.0
03-04-2022, 00:30:04,     63,    0.0,   -1.1,   0.00,   0.00, 1021.9,   84.5, -999.0
03-04-2022, 00:30:14,     63,    0.0,   -1.2,   0.00,   0.00, 1021.9,   84.5, -999.0
03-04-2022, 00:30:24,     63,    0.0,   -1.2,   0.00,   0.00, 1021.9,   84.3, -999.0
03-04-2022, 00:30:34,     63,    0.0,   -1.2,   0.00,   0.00, 1021.9,   84.3, -999.0
03-04-2022, 00:30:44,     63,    0.0,   -1.1,   0.00,   0.00, 1021.9,   84.3, -999.0
03-04-2022, 00:30:54,     63,    0.0,   -1.2,   0.00,   0.00, 1021.9,   84.5, -999.0
03-04-2022, 00:31:04,     63,    0.0,   -1.1,   0.00,   0.00, 1021.9,   84.5, -999.0
03-04-2022, 00:31:14,     63,    0.0,   -1.0,   0.00,   0.00, 1021.9,   84.6, -999.0
03-04-2022, 00:31:24,     63,    0.0,   -1.1,   0.00,   0.00, 1021.9,   84.6, -999.0
03-04-2022, 00:31:33,     63,    0.0,   -1.2,   0.00,   0.00, 1021.9,   84.4, -999.0
03-04-2022, 00:31:44,     63,    0.0,   -1.2,   0.00,   0.00, 1021.9,   84.4, -999.0
03-04-2022, 00:31:54,     63,    0.0,   -1.2,   0.00,   0.00, 1021.9,   84.6, -999.0
03-04-2022, 00:32:03,     63,    0.0,   -1.2,   0.00,   0.00, 1021.9,   84.6, -999.0
03-04-2022, 00:32:14,     63,    0.0,   -1.1,   0.00,   0.00, 1021.9,   84.6, -999.0
03-04-2022, 00:32:24,     63,    0.0,   -1.2,   0.00,   0.00, 1021.9,   84.7, -999.0
03-04-2022, 00:32:33,     63,    0.0,   -1.2,   0.00,   0.00, 1021.9,   84.7, -999.0
03-04-2022, 00:32:43,     63,    0.0,   -1.1,   0.00,   0.00, 1021.9,   84.7, -999.0
03-04-2022, 00:32:54,     63,    0.0,   -1.1,   0.00,   0.00, 1021.9,   84.8, -999.0
03-04-2022, 00:33:03,     64,    0.0,   -1.1,   0.00,   0.00, 1021.9,   84.6, -999.0
03-04-2022, 00:33:13,     64,    0.0,   -1.2,   0.00,   0.00, 1021.9,   84.6, -999.0
03-04-2022, 00:33:23,     63,    0.0,   -1.2,   0.00,   0.00, 1021.9,   84.5, -999.0
03-04-2022, 00:33:33,     63,    0.0,   -1.2,   0.00,   0.00, 1021.9,   84.6, -999.0
03-04-2022, 00:33:43,     63,    0.0,   -1.2,   0.00,   0.00, 1021.9,   84.5, -999.0
03-04-2022, 00:33:53,     64,    0.0,   -1.3,   0.00,   0.00, 1021.9,   84.6, -999.0
03-04-2022, 00:34:03,     63,    0.0,   -1.2,   0.00,   0.00, 1021.9,   84.6, -999.0
03-04-2022, 00:34:13,     63,    0.0,   -1.2,   0.00,   0.00, 1021.9,   84.6, -999.0
03-04-2022, 00:34:23,     63,    0.0,   -1.2,   0.00,   0.00, 1021.9,   84.5, -999.0
03-04-2022, 00:34:33,     64,    0.0,   -1.3,   0.00,   0.00, 1021.9,   84.6, -999.0
03-04-2022, 00:34:43,     63,    0.0,   -1.2,   0.00,   0.00, 1021.9,   84.6, -999.0
03-04-2022, 00:34:53,     63,    0.0,   -1.2,   0.00,   0.00, 1021.9,   84.6, -999.0
03-04-2022, 00:35:03,     63,    0.0,   -1.2,   0.00,   0.00, 1021.9,   84.8, -999.0
03-04-2022, 00:35:12,     63,    0.0,   -1.1,   0.00,   0.00, 1021.9,   84.9, -999.0
03-04-2022, 00:35:23,     63,    0.0,   -1.2,   0.00,   0.00, 1021.9,   84.9, -999.0
03-04-2022, 00:35:33,     63,    0.0,   -1.2,   0.00,   0.00, 1021.9,   84.9, -999.0
03-04-2022, 00:35:42,     63,    0.0,   -1.3,   0.00,   0.00, 1021.9,   84.8, -999.0
03-04-2022, 00:35:52,     63,    0.0,   -1.2,   0.00,   0.00, 1021.9,   84.9, -999.0
03-04-2022, 00:36:03,     63,    0.0,   -1.1,   0.00,   0.00, 1021.9,   84.9, -999.0
03-04-2022, 00:36:12,     63,    0.0,   -1.1,   0.00,   0.00, 1021.9,   84.9, -999.0
03-04-2022, 00:36:22,     63,    0.0,   -1.2,   0.00,   0.00, 1021.9,   85.0, -999.0
03-04-2022, 00:36:32,     63,    0.0,   -1.1,   0.00,   0.00, 1021.9,   84.9, -999.0
03-04-2022, 00:36:42,     63,    0.0,   -1.1,   0.00,   0.00, 1021.9,   85.0, -999.0
03-04-2022, 00:36:52,     63,    0.0,   -1.3,   0.00,   0.00, 1021.9,   85.0, -999.0
03-04-2022, 00:37:02,     63,    0.0,   -1.1,   0.00,   0.00, 1021.9,   85.0, -999.0
03-04-2022, 00:37:12,     63,    0.0,   -1.1,   0.00,   0.00, 1021.9,   85.0, -999.0
03-04-2022, 00:37:22,     64,    0.0,   -1.2,   0.00,   0.00, 1021.9,   85.0, -999.0
03-04-2022, 00:37:32,     63,    0.0,   -1.2,   0.00,   0.00, 1021.9,   85.0, -999.0
03-04-2022, 00:37:42,     63,    0.0,   -1.2,   0.00,   0.00, 1021.9,   85.0, -999.0
03-04-2022, 00:37:52,     63,    0.0,   -1.2,   0.00,   0.00, 1021.9,   84.9, -999.0
03-04-2022, 00:38:02,     63,    0.0,   -1.2,   0.00,   0.00, 1021.9,   85.0, -999.0
03-04-2022, 00:38:12,     63,    0.0,   -1.2,   0.00,   0.00, 1021.9,   85.1, -999.0
03-04-2022, 00:38:22,     64,    0.0,   -1.2,   0.00,   0.00, 1022.0,   85.0, -999.0
03-04-2022, 00:38:32,     63,    0.0,   -1.2,   0.00,   0.00, 1021.9,   85.1, -999.0
03-04-2022, 00:38:42,     63,    0.0,   -1.2,   0.00,   0.00, 1021.9,   85.1, -999.0
03-04-2022, 00:38:52,     63,    0.0,   -1.2,   0.00,   0.00, 1022.0,   85.1, -999.0
03-04-2022, 00:39:02,     63,    0.0,   -1.1,   0.00,   0.00, 1022.0,   85.0, -999.0
03-04-2022, 00:39:12,     63,    0.0,   -1.1,   0.00,   0.00, 1021.9,   85.1, -999.0
03-04-2022, 00:39:21,     63,    0.0,   -1.3,   0.00,   0.00, 1021.9,   85.0, -999.0
03-04-2022, 00:39:31,     63,    0.0,   -1.2,   0.00,   0.00, 1022.0,   85.0, -999.0
03-04-2022, 00:39:42,     63,    0.0,   -1.1,   0.00,   0.00, 1022.0,   85.0, -999.0
03-04-2022, 00:39:51,     63,    0.0,   -1.2,   0.00,   0.00, 1021.9,   85.1, -999.0
03-04-2022, 00:40:01,     63,    0.0,   -1.2,   0.00,   0.00, 1021.9,   85.2, -999.0
03-04-2022, 00:40:11,     63,    0.0,   -1.2,   0.00,   0.00, 1021.9,   85.1, -999.0
03-04-2022, 00:40:21,     63,    0.0,   -1.2,   0.00,   0.00, 1022.0,   85.1, -999.0
03-04-2022, 00:40:31,     63,    0.0,   -1.3,   0.00,   0.00, 1021.9,   85.1, -999.0
03-04-2022, 00:40:41,     63,    0.0,   -1.2,   0.00,   0.00, 1021.9,   85.0, -999.0
03-04-2022, 00:40:51,     63,    0.0,   -1.2,   0.00,   0.00, 1021.9,   85.0, -999.0
03-04-2022, 00:41:01,     63,    0.0,   -1.3,   0.00,   0.00, 1021.9,   85.0, -999.0
03-04-2022, 00:41:11,     63,    0.0,   -1.3,   0.00,   0.00, 1021.9,   84.9, -999.0
03-04-2022, 00:41:21,     63,    0.0,   -1.2,   0.00,   0.00, 1021.9,   85.0, -999.0
03-04-2022, 00:41:31,     63,    0.0,   -1.2,   0.00,   0.00, 1021.9,   85.0, -999.0
03-04-2022, 00:41:41,     63,    0.0,   -1.3,   0.00,   0.00, 1021.9,   85.1, -999.0
03-04-2022, 00:41:51,     63,    0.0,   -1.4,   0.00,   0.00, 1022.0,   85.0, -999.0
03-04-2022, 00:42:01,     63,    0.0,   -1.3,   0.00,   0.00, 1021.9,   85.0, -999.0
03-04-2022, 00:42:11,     63,    0.0,   -1.4,   0.00,   0.00, 1022.0,   85.1, -999.0
03-04-2022, 00:42:21,     63,    0.0,   -1.3,   0.00,   0.00, 1021.9,   84.9, -999.0
03-04-2022, 00:42:31,     63,    0.0,   -1.3,   0.00,   0.00, 1021.9,   84.9, -999.0
03-04-2022, 00:42:40,     63,    0.0,   -1.4,   0.00,   0.00, 1022.0,   85.2, -999.0
03-04-2022, 00:42:51,     63,    0.0,   -1.3,   0.00,   0.00, 1021.9,   85.1, -999.0
03-04-2022, 00:43:01,     63,    0.0,   -1.4,   0.00,   0.00, 1021.9,   85.1, -999.0
03-04-2022, 00:43:10,     63,    0.0,   -1.4,   0.00,   0.00, 1022.0,   85.3, -999.0
03-04-2022, 00:43:20,     63,    0.0,   -1.2,   0.00,   0.00, 1021.9,   85.1, -999.0
03-04-2022, 00:43:30,     64,    0.0,   -1.3,   0.00,   0.00, 1021.9,   85.1, -999.0
03-04-2022, 00:43:40,     63,    0.0,   -1.3,   0.00,   0.00, 1021.9,   85.2, -999.0
03-04-2022, 00:43:50,     63,    0.0,   -1.4,   0.00,   0.00, 1022.0,   85.1, -999.0
03-04-2022, 00:44:00,     63,    0.0,   -1.4,   0.00,   0.00, 1022.0,   85.0, -999.0
03-04-2022, 00:44:10,     63,    0.0,   -1.4,   0.00,   0.00, 1022.0,   85.0, -999.0
03-04-2022, 00:44:20,     63,    0.0,   -1.5,   0.00,   0.00, 1022.0,   85.0, -999.0
03-04-2022, 00:44:30,     63,    0.0,   -1.4,   0.00,   0.00, 1022.0,   85.0, -999.0
03-04-2022, 00:44:40,     63,    0.0,   -1.4,   0.00,   0.00, 1022.0,   85.0, -999.0
03-04-2022, 00:44:50,     63,    0.0,   -1.4,   0.00,   0.00, 1022.0,   85.0, -999.0
03-04-2022, 00:45:00,     62,    0.0,   -1.4,   0.00,   0.00, 1022.0,   85.0, -999.0
03-04-2022, 00:45:10,     63,    0.0,   -1.5,   0.00,   0.00, 1022.0,   85.0, -999.0
03-04-2022, 00:45:20,     63,    0.0,   -1.5,   0.00,   0.00, 1022.0,   85.0, -999.0
03-04-2022, 00:45:30,     63,    0.0,   -1.5,   0.00,   0.00, 1022.0,   85.1, -999.0
03-04-2022, 00:45:40,     63,    0.0,   -1.4,   0.00,   0.00, 1022.0,   85.1, -999.0
03-04-2022, 00:45:49,     63,    0.0,   -1.4,   0.00,   0.00, 1022.0,   85.3, -999.0
03-04-2022, 00:46:00,     64,    0.0,   -1.4,   0.00,   0.00, 1022.0,   85.2, -999.0
03-04-2022, 00:46:10,     63,    0.0,   -1.4,   0.00,   0.00, 1022.0,   85.3, -999.0
03-04-2022, 00:46:19,     63,    0.0,   -1.4,   0.00,   0.00, 1022.0,   85.3, -999.0
03-04-2022, 00:46:30,     63,    0.0,   -1.4,   0.00,   0.00, 1022.0,   85.3, -999.0
03-04-2022, 00:46:40,     63,    0.0,   -1.5,   0.00,   0.00, 1022.0,   85.4, -999.0